Regional Weather Roundup
Issued by NWS Cleveland, OH

Home | Current Version | Previous Version | Graphics & Text | Print | Product List | Glossary On
Versions: 1 2 3 4 5 6 7 8 9 10 11 12 13 14 15 16 17 18 19 20 21 22 23 24 25 26 27 28 29 30 31 32 33 34 35 36 37 38 39 40 41 42 43 44 45 46 47 48 49 50
000
ASUS41 KCLE 020300
RWRCLE
OHIO REGIONAL WEATHER ROUNDUP
NATIONAL WEATHER SERVICE WILMINGTON, OH
1100 PM EDT SAT AUG 01 2015

NOTE: "FAIR" INDICATES FEW OR NO CLOUDS BELOW 12,000 FEET WITH NO
SIGNIFICANT WEATHER AND/OR OBSTRUCTIONS TO VISIBILITY.

OHZ001>008-015>018-024>027-034-035-043-044-020400-
   NORTHWEST OHIO

CITY           SKY/WX    TMP DP  RH WIND       PRES   REMARKS
DEFIANCE       MOCLDY    70  59  68 CALM      29.93S
FINDLAY        CLEAR     70  57  63 S5        29.93S
TOLEDO EXPRESS PTCLDY    71  55  56 SW5       29.92S
TOLEDO EXEC    MOCLDY    72  55  55 SW3       29.93R
LIMA           CLEAR     69  57  65 S6        29.96S
$$

OHZ009>014-019>023-028>033-038-089-020400-
   NORTHEAST OHIO

CITY           SKY/WX    TMP DP  RH WIND       PRES   REMARKS
CLE-HOPKINS    PTCLDY    70  54  56 SW7       29.94R
CLE-LAKEFRONT  PTCLDY    76  53  44 SW9       29.90R
CUY CO. ARPT   PTCLDY    72  57  60 S7        29.92S
LORAIN-ELYRIA  CLEAR     65  54  67 W6        29.93S
ASHTABULA      CLEAR     66  55  67 SW5       29.92S
AKRON-CANTON   PTCLDY    69  55  60 SW6       29.95R
WOOSTER        NOT AVBL
MANSFIELD      MOCLDY    68  54  60 SW5       29.97R
YOUNGSTOWN     PTCLDY    66  54  65 S5        29.94S
$$

OHZ042-051>053-060>062-070>072-077>081-020400-
  SOUTHWEST OHIO

CITY           SKY/WX    TMP DP  RH WIND       PRES   REMARKS
CINC-COVINGTON CLEAR     69  58  67 W5        30.00S
CINC-LUNKEN    PTCLDY    66  62  87 CALM      29.99R
HAMILTON       PTCLDY    65  62  90 CALM      30.00R
DAYTON         NOT AVBL
WRIGHT-PAT AFB NOT AVBL
DAYTON GENERAL PTCLDY    74  57  55 W3        29.99R
WILMINGTON     PTCLDY    64  61  90 SW3       30.00R
$$

OHZ036-037-039>041-045>050-054>059-063>069-073>076-082>088-020400-
  CENTRAL AND SOUTHEAST OHIO

CITY           SKY/WX    TMP DP  RH WIND       PRES   REMARKS
COLUMBUS       PTCLDY    73  55  53 W6        29.96S
OSU AIRPORT    CLEAR     70  57  63 W6        29.97R
BOLTON FIELD   NOT AVBL
RICKENBACK AFB NOT AVBL
NEWARK         CLEAR     68  58  70 CALM      29.97R
MARION         PTCLDY    73  55  53 W6        29.96S
LANCASTER      CLEAR     62  58  86 CALM      29.98R
ZANESVILLE     CLEAR     68  58  70 SW3       29.97R
NEW PHILLY     CLEAR     61  58  90 CALM      29.96R
$$



USA.gov is the U.S. government's official web portal to all federal, state and local government web resources and services.